Tracking 18945 objects as of 19-Jan-2018
HD Live streaming from Space Station
objects crossing your sky now

FENGYUN 1C DEB

Track FENGYUN 1C DEB now!
10-day predictions


NORAD ID: 31190
Int'l Code: 1999-025BJU
Perigee: 852.4 km
Apogee: 959.3 km
Inclination: 99.1 °
Period: 103.0 minutes
Semi major axis: 7276 km
RCS: 0.0055 m2 (small)
Launch date: May 10, 1999
Source: People's Republic of China (PRC)
Launch site: Taiyaun Space Center, China (TSC)

Note: This is SATELLITE DEBRIS
aabbcc
Your satellite tracking list
Your tracking list is empty




NASA's NSSDC Master Catalog

Two Line Element Set (TLE):
1 31190U 99025BJU 18015.30672103  .00000519  00000-0  38448-3 0  9991
2 31190  99.1042  50.9978 0073419 336.2360  23.5419 13.98586842551803
Source of the keplerian elements: AFSPC